Weather in Jilin City

China     43°52′13″N   126°32′47″E
temp.,
°C
wind,
m/s
gust,
m/s
humid.,
%
clouds,
%
prec.,
mm/h
press.,
hPa
HPBL,
m
13 may, thu
thu1323:00+10ssw47795 0.0 1010110
02:00+9ssw2290100 0.0 101137
05:00+10s248998 0.0 101290
08:00+16sw4564100 0.0 1012768
11:00+21wsw363985 0.0 10101896
14:00+21wsw563876 0.0 10092371
17:00+20wsw474891 0.0 1009507
20:00+14ssw366886 0.0 1011105
14 may, fri
fri1423:00+12sse2174100 0.0 101216
02:00+12sse2277100 0.0 101225
05:00+12sse2382100 0.0 101249
08:00+17sse3566100 0.0 1012345
11:00+22s5747100 0.0 10091317
14:00+20s3662100 0.0 1006338
17:00+23ssw41059100 0.0 1003514
20:00+21ssw7166418 0.1 1004796
15 may, sat
sat1523:00+19sw81667100 0.0 10061127
02:00+18wsw71566100 0.0 10061110
05:00+14nnw4684100 0.0 1008610
08:00+11nw2588100 1.0 1011531
11:00+11sw1289100 1.2 1012274
14:00+12wnw1367100 1.3 1011349
17:00+12sw1151100 0.0 1012419
20:00+9s2273100 0.0 101347
16 may, sun
sun1623:00+9s1168100 0.0 101223
02:00+9s1166100 0.0 101212
05:00+9sse1169100 0.0 101124
08:00+14sse2255100 0.0 1012424
11:00+18sw1242100 0.0 10101315
14:00+21n2432100 0.0 10072260
17:00+20se224033 0.0 1006318
20:00+13s22550 0.0 100714
17 may, mon
mon1723:00+9s22793 0.0 100823
02:00+8s22785 0.0 100821
05:00+9sse2373100 0.0 100847
08:00+17ssw3449100 0.0 1008438
11:00+22wsw56335 0.0 10071318
14:00+24wsw4629100 0.0 10062145
17:00+22ssw37450 0.0 1005261
20:00+15s34480 0.0 100649